User: anonymous   Login
Location: Unspecified
(0.0000°N, 0.0000°E)
Time: 11:32:58
(UTC+00:00)
Language:

DSP F16 - Orbit

View from above orbital plane
View from above orbital plane
View from above satellite
View from above satellite

Ground track
Ground track

The orbit data is extracted from the following two-line orbital elements,

1 21805U 91080B   19138.28728437 -.00000044  00000-0  00000+0 0  9995
2 21805  15.1559   6.1442 0008617  10.3173 349.6478  0.99200169    49
Epoch (UTC): 18 May 2019 06:53:41
Eccentricity: 0.0008617
inclination: 15.1559°
perigee height: 36053 km
apogee height: 36126 km
right ascension of ascending node: 6.1442°
argument of perigee: 10.3173°
revolutions per day: 0.99200169
mean anomaly at epoch: 349.6478°
orbit number at epoch: 4

The dashed part of the orbit path shows where the satellite is in the earth's shadow,  

DLR